Meteopurmerend
purmerend
Purmerend - Baaienwijk



My webcam  My webcam


waarschuwing voor Onweer Meer informatie blitzortung!


Regen radar Meer informatie rain snow radar


Bezoek onze andere website:

CandyAppleRed WebdesignWebdesign Purmerend Candy Apple Red

MeteopurmerendBlog

Template documentation
and downloads



Onweer van: 26-07-2021 10:00 tot: 21:00 waarschuwing voor: Onweer niveau: Geel info button
Enkele onweersbuien, lokaal met hagel en veel neerslag in korte tijd.Kans op blikseminslag, hagel en veel neerslag in korte tijd.Verkeer en buitenactiviteiten kunnen hinder ondervinden.Mijd open water en open gebied, schuil niet onder bomen.Volg weerberichten en waarschuwingen.

15 daagse weersverwachting Lappeenranta (FI)

  • Overzicht
  • Per uur
  • 15 dagen
  • Extra
  • Vergelijk
  • Kaarten
  • Dagkaart
  • Meer »
  • Info
  • Statistieken
  • Directe link
    Temp 6h Neerslag Wind  
 04:30     22:00    Daglengte: 17:30 Vandaag
21:00
24°
 
2
 04:32     21:57    Daglengte: 17:25 Morgen
03:00
19°
 
2
09:00
23°
 
2
15:00
28°
 
2
21:00
25°
 
3
 04:35     21:55    Daglengte: 17:20 Woensdag 28 Jul
03:00
19°
 
3
09:00
22°
 
3
15:00
23°
2.3 mm
3
warningclass
21:00
20°
8.6 mm
4
 04:37     21:52    Daglengte: 17:15 Donderdag 29 Jul
03:00
18°
15.3 mm
3
warningclass
09:00
19°
34.3 mm
4
Locatie info
Region: Etelä-Karjala
Latitude: 61.0555°N
Longitude: 28.1889°E
104 masl
Postcode: 53100
Temp/Neerslag /Baro Onweer/Dauwpunt
    Temp Baro 1h Neerslag Dauwpunt Wind UV Bewolking  
 04:30     22:00    Daglengte: 17:30 Vandaag
16:00
27°
Voelt als: 26.4°
1019.6 hPa   10.5°
2
Windvlaag: -3.8 m/s
52%
17:00
27°
Voelt als: 26.5°
1019.4 hPa   10.5°
1
Windvlaag: -3.3 m/s
31%
18:00
27°
Voelt als: 26.5°
1019.2 hPa   10.8°
2
Windvlaag: 3.7 m/s
13%
19:00
26°
Voelt als: 26.4°
1019.0 hPa   11.5°
1
Windvlaag: 4.1 m/s
0%
20:00
26°
1018.8 hPa   14.0°
1
Windvlaag: 3.9 m/s
6%
21:00
24°
1019.0 hPa   16.2°
2
Windvlaag: 3 m/s
3%
22:00
23°
1019.2 hPa   17.4°
3
Windvlaag: 3.4 m/s
1%
23:00
21°
1019.6 hPa   18.1°
2
Windvlaag: 3.4 m/s
0%
 04:32     21:57    Daglengte: 17:25 Morgen
00:00
21°
1019.7 hPa   17.5°
2
Windvlaag: 2.8 m/s
0%
01:00
20°
1019.7 hPa   16.7°
2
Windvlaag: 2.4 m/s
0%
02:00
19°
1019.7 hPa   16.5°
2
Windvlaag: 2.2 m/s
0%
03:00
19°
1019.7 hPa   16.2°
2
Windvlaag: 1.7 m/s
0%
04:00
19°
1019.7 hPa   15.9°
1
Windvlaag: 1.7 m/s
1%
05:00
18°
1019.6 hPa   15.4°
2
Windvlaag: 1.6 m/s
2%
06:00
18°
1019.6 hPa   15.7°
1
Windvlaag: 1.6 m/s
2%
07:00
19°
1019.3 hPa   16.6°
1
Windvlaag: 1.7 m/s
2%
08:00
21°
1019.2 hPa   15.6°
2
Windvlaag: 1.9 m/s
2%
09:00
23°
1019.1 hPa   14.3°
2
Windvlaag: 2.1 m/s
1%
10:00
25°
1019.1 hPa   12.8°
2
Windvlaag: 2.5 m/s
0%
11:00
26°
1018.8 hPa   12.0°
1
Windvlaag: 2.6 m/s
0%
12:00
27°
Voelt als: 26.6°
1018.5 hPa   11.4°
1
Windvlaag: 2.3 m/s
2%
13:00
27°
Voelt als: 26.9°
1018.1 hPa   11.5°
1
Windvlaag: 2.1 m/s
12%
14:00
28°
Voelt als: 27.2°
1017.8 hPa   11.2°
1
Windvlaag: 0.1 m/s
14%
15:00
28°
Voelt als: 27.2°
1017.1 hPa   10.9°
2
Windvlaag: -2.1 m/s
30%
16:00
28°
Voelt als: 27.1°
1016.5 hPa
12%
10.9°
3
Windvlaag: -3 m/s
36%
17:00
28°
Voelt als: 27.0°
1016.1 hPa
16%
10.4°
3
Windvlaag: -2.1 m/s
39%
18:00
27°
Voelt als: 26.9°
1015.9 hPa   10.4°
3
Windvlaag: -1.9 m/s
43%
19:00
27°
Voelt als: 26.8°
1015.4 hPa   11.5°
2
Windvlaag: -0.1 m/s
23%
20:00
26°
1015.0 hPa   15.4°
2
Windvlaag: 5.1 m/s
10%
21:00
25°
1015.0 hPa   17.0°
3
Windvlaag: 5.4 m/s
10%
22:00
23°
1015.0 hPa   18.0°
3
Windvlaag: 4.4 m/s
10%
23:00
22°
1014.9 hPa   17.5°
3
Windvlaag: 3.4 m/s
11%
 04:35     21:55    Daglengte: 17:20 Woensdag 28 Jul
00:00
21°
1014.7 hPa   16.2°
3
Windvlaag: 2 m/s
16%
01:00
20°
1014.5 hPa   16.8°
3
Windvlaag: 1.6 m/s
16%
02:00
19°
1014.2 hPa   17.3°
3
Windvlaag: 3.1 m/s
15%
03:00
19°
1013.8 hPa   17.5°
3
Windvlaag: 3.2 m/s
12%
04:00
19°
1013.2 hPa   17.7°
3
Windvlaag: 3 m/s
12%
05:00
19°
1012.9 hPa   17.7°
3
Windvlaag: 2.2 m/s
34%
06:00
19°
1012.6 hPa   17.8°
4
Windvlaag: 2.4 m/s
14%
07:00
20°
1012.1 hPa   17.8°
4
Windvlaag: 1.8 m/s
42%
08:00
21°
1011.5 hPa   18.3°
4
Windvlaag: 2.4 m/s
32%
09:00
22°
1011.1 hPa   17.9°
3
Windvlaag: 2.4 m/s
14%
10:00
23°
1010.6 hPa   17.5°
4
Windvlaag: 4.5 m/s
19%
11:00
24°
1010.1 hPa   16.7°
4
Windvlaag: 5.4 m/s
19%
12:00
25°
1009.3 hPa
65%
17.2°
4
Windvlaag: 5.3 m/s
83%
13:00
24°
1008.8 hPa
37%
18.3°
4
Windvlaag: 6.1 m/s
91%
14:00
25°
1008.2 hPa 0.7 mm
85%
17.9°
3
Windvlaag: 6.1 m/s
96% warningclass
15:00
23°
1007.9 hPa 1.6 mm
43%
18.8°
3
Windvlaag: 4.7 m/s
100% warningclass
16:00
24°
1007.2 hPa 1.2 mm
78%
18.3°
3
Windvlaag: 1.4 m/s
91% warningclass
17:00
22°
1007.1 hPa 1.8 mm
52%
19.2°
3
Windvlaag: 1.5 m/s
100% warningclass
18:00
22°
1006.8 hPa 1.7 mm
91%
19.9°
3
Windvlaag: 3.4 m/s
100% warningclass
19:00
21°
1006.6 hPa
38%
19.5°
3
Windvlaag: 3 m/s
99%
20:00
21°
1006.1 hPa 2.4 mm
40%
18.3°
3
Windvlaag: 2.9 m/s
99%
21:00
20°
1005.6 hPa 1.5 mm
100%
17.9°
4
Windvlaag: 2.8 m/s
99%
22:00
19°
1005.3 hPa 1.8 mm
100%
17.8°
3
Windvlaag: 3.7 m/s
99%
23:00
19°
1005.0 hPa 1.9 mm
100%
17.9°
3
Windvlaag: 4.3 m/s
100%
 04:37     21:52    Daglengte: 17:15 Donderdag 29 Jul
00:00
19°
1004.5 hPa 2.5 mm
100%
18.5°
2
Windvlaag: 4.5 m/s
100% warningclass
01:00
19°
1004.1 hPa 3.1 mm
100%
18.3°
4
Windvlaag: 6.9 m/s
100% warningclass
02:00
18°
1003.4 hPa 2.5 mm
100%
18.2°
3
Windvlaag: 6.7 m/s
92% warningclass
03:00
18°
1002.7 hPa 3.5 mm
100%
18.3°
3
Windvlaag: 6.1 m/s
100% warningclass
04:00
18°
1002.1 hPa 2.1 mm
100%
18.1°
3
Windvlaag: 5.3 m/s
100%
05:00
18°
1001.8 hPa 3.5 mm
81%
18.1°
3
Windvlaag: 4.8 m/s
91%
06:00
18°
1001.2 hPa 3.6 mm
26%
18.1°
3
Windvlaag: 6.5 m/s
88%
07:00
18°
1000.6 hPa 6.2 mm
21%
18.1°
4
Windvlaag: 8 m/s
88%
08:00
18°
1000.4 hPa 8.9 mm
21%
18.4°
4
Windvlaag: 7.8 m/s
78%
09:00
19°
1000.4 hPa 10.2 mm
21%
18.6°
4
Windvlaag: 8.1 m/s
82%
10:00
20°
1001.1 hPa
21%
19.6°
4
Windvlaag: 5.2 m/s
59%
11:00
21°
1001.0 hPa
21%
20.0°
5
Windvlaag: 8.8 m/s
74%
12:00
21°
1000.7 hPa
22%
20.8°
6
Windvlaag: 9 m/s
94%
13:00
21°
1000.4 hPa
22%
20.5°
5
Windvlaag: 8.2 m/s
85%
14:00
22°
999.9 hPa
77%
20.8°
5
Windvlaag: 6.4 m/s
29%
15:00
22°
999.4 hPa
34%
21.0°
5
Windvlaag: 2.8 m/s
20%
Temp/Neerslag /Baro Onweer/Dauwpunt
    Temp Baro Neerslag Dauwpunt Wind Bewolking  
 04:30     22:00    Daglengte: 17:30 Vandaag
18:00
27°
Voelt als: 26.5°
1019.2 hPa   10.8°
2
13%
21:00
24°
1019.0 hPa   16.2°
2
3%
 04:32     21:57    Daglengte: 17:25 Morgen
00:00
21°
1019.7 hPa   17.5°
2
0%
03:00
19°
1019.7 hPa   16.2°
2
0%
06:00
18°
1019.6 hPa   15.7°
1
2%
09:00
23°
1019.1 hPa   14.3°
2
1%
12:00
27°
Voelt als: 26.6°
1018.5 hPa   11.4°
1
2%
15:00
28°
Voelt als: 27.2°
1017.1 hPa   10.9°
2
30%
18:00
27°
Voelt als: 26.9°
1015.9 hPa   10.4°
3
43%
21:00
25°
1015.0 hPa   17.0°
3
10%
 04:35     21:55    Daglengte: 17:20 Woensdag 28 Jul
00:00
21°
1014.7 hPa   16.2°
3
16%
03:00
19°
1013.8 hPa   17.5°
3
12%
06:00
19°
1012.6 hPa   17.8°
4
14%
09:00
22°
1011.1 hPa   17.9°
3
14%
12:00
25°
1009.3 hPa   17.2°
4
83%
15:00
23°
1007.9 hPa 2.3 mm 18.8°
3
100% warningclass
18:00
22°
1006.8 hPa 4.7 mm 19.9°
3
100% warningclass
21:00
20°
1005.6 hPa 3.9 mm 17.9°
4
99%
 04:37     21:52    Daglengte: 17:15 Donderdag 29 Jul
00:00
19°
1004.5 hPa 6.2 mm 18.5°
2
100% warningclass
03:00
18°
1002.7 hPa 9.1 mm 18.3°
3
100% warningclass
06:00
18°
1001.2 hPa 9.1 mm 18.1°
3
88%
09:00
19°
1000.4 hPa 25.2 mm 18.6°
4
82%
12:00
21°
1000.7 hPa   20.8°
6
94%
15:00
22°
999.4 hPa   21.0°
5
20%
18:00
22°
999.0 hPa 6.3 mm 14.8°
5
1%
21:00
19°
998.9 hPa 7.0 mm 15.6°
4
0%
 04:40     21:49    Daglengte: 17:09 Vrijdag 30 Jul
00:00
16°
998.7 hPa 7.0 mm 13.7°
4
0%
03:00
16°
998.2 hPa 7.0 mm 13.9°
4
1%
06:00
16°
997.5 hPa 7.5 mm 14.3°
4
1%
09:00
18°
997.2 hPa 7.6 mm 11.1°
6
1%
12:00
18°
996.6 hPa 8.9 mm 14.4°
7
1%
15:00
18°
995.6 hPa 10.7 mm 14.4°
7
1%
18:00
18°
994.7 hPa 11.9 mm 13.7°
6
1%
21:00
15°
992.3 hPa 13.3 mm 13.6°
6
1%
 04:42     21:47    Daglengte: 17:05 Zaterdag 31 Jul
00:00
14°
990.3 hPa 15.0 mm 12.7°
5
1%
03:00
13°
989.6 hPa 15.2 mm 11.9°
5
1%
06:00
12°
989.5 hPa 16.3 mm 11.8°
4
1%
09:00
15°
991.0 hPa 17.0 mm 12.6°
5
1%
12:00
15°
993.3 hPa 17.4 mm 13.2°
5
1%
15:00
19°
995.1 hPa 18.8 mm 13.6°
5
1%
18:00
21°
996.2 hPa 18.9 mm 10.0°
4
0%
21:00
18°
997.7 hPa 18.9 mm 12.8°
3
1%
 04:45     21:44    Daglengte: 16:59 Zondag 01 Aug
00:00
17°
998.6 hPa 18.9 mm 12.8°
2
1%
03:00
14°
999.5 hPa 18.9 mm 11.8°
3
1%
06:00
14°
1000.9 hPa 18.9 mm 12.1°
3
1%
09:00
18°
1001.0 hPa 18.9 mm 11.5°
3
1%
12:00
21°
1001.0 hPa 18.9 mm 11.8°
4
1%
15:00
21°
1000.7 hPa 19.4 mm 13.4°
6
1%
18:00
17°
999.9 hPa 19.8 mm 14.7°
3
1%
21:00
17°
999.1 hPa 21.0 mm 15.2°
5
1%
 04:47     21:42    Daglengte: 16:55 Maandag 02 Aug
00:00
15°
999.9 hPa 21.1 mm 13.7°
4
1%
03:00
15°
999.9 hPa 21.1 mm 13.9°
4
0%
06:00
15°
1000.7 hPa 21.1 mm 14.3°
3
1%
09:00
18°
1000.6 hPa 21.2 mm 14.9°
4
1%
12:00
20°
1000.5 hPa 21.6 mm 13.1°
4
1%
15:00
22°
999.5 hPa 43.3 mm 10.7°
3
1%
21:00
18°
997.3 hPa 43.4 mm 12.7°
2
1%
 04:50     21:39    Daglengte: 16:49 Dinsdag 03 Aug
03:00
15°
996.3 hPa 45.8 mm 13.4°
2
1%
09:00
16°
996.7 hPa 48.4 mm 12.7°
4
1%
15:00
22°
997.3 hPa 49.5 mm 7.3°
5
1%
21:00
17°
1001.3 hPa 50.3 mm 7.9°
5
0%
 04:52     21:36    Daglengte: 16:44 Woensdag 04 Aug
03:00
12°
1002.1 hPa 50.7 mm 11.5°
5
0%
09:00
15°
1004.5 hPa 51.1 mm 7.3°
6
0%
15:00
18°
1004.8 hPa 51.1 mm 6.2°
5
1%
21:00
16°
1005.4 hPa 51.5 mm 10.8°
5
0%
 04:55     21:33    Daglengte: 16:38 Donderdag 05 Aug
03:00
12°
1006.6 hPa 51.7 mm 10.9°
3
0%
09:00
16°
1004.7 hPa 55.5 mm 14.5°
5
1%
15:00
18°
1008.0 hPa 1.4 mm 10.3°
1
66%
21:00
15°
1007.9 hPa 1.3 mm 10.7°
1
66%
 04:57     21:31    Daglengte: 16:34 Vrijdag 06 Aug
03:00
12°
1008.4 hPa 0.3 mm 10.2°
1
65%
09:00
15°
1008.2 hPa 0.7 mm 10.8°
1
73%
15:00
18°
1008.0 hPa 1.2 mm 10.5°
0
76%
21:00
15°
1007.7 hPa 0.6 mm 10.5°
1
71%
 05:00     21:28    Daglengte: 16:28 Zaterdag 07 Aug
03:00
12°
1007.9 hPa 0.5 mm 9.9°
1
70%
09:00
15°
1007.4 hPa 1.6 mm 10.7°
1
68%
15:00
19°
1007.0 hPa 2.0 mm 11.4°
1
63%
21:00
16°
1007.2 hPa 0.8 mm 11.4°
1
63%
 05:02     21:25    Daglengte: 16:23 Zondag 08 Aug
03:00
13°
1008.0 hPa 0.4 mm 10.5°
1
52%
09:00
16°
1008.2 hPa 0.8 mm 11.2°
1
56%
15:00
20°
1008.5 hPa 0.2 mm 10.4°
2
55%
21:00
16°
1009.1 hPa 0.7 mm 10.8°
1
49%
 05:05     21:22    Daglengte: 16:17 Maandag 09 Aug
03:00
12°
1010.1 hPa 0.3 mm 9.7°
0
49%
09:00
16°
1010.6 hPa 0.5 mm 10.5°
0
50%
15:00
20°
1010.8 hPa 0.8 mm 10.1°
1
60%
21:00
16°
1010.7 hPa 0.6 mm 10.5°
1
68%
 05:07     21:19    Daglengte: 16:12 Dinsdag 10 Aug
03:00
13°
1010.8 hPa 0.5 mm 10.1°
1
54%
09:00
16°
1010.9 hPa 0.2 mm 11.0°
1
68%
15:00
19°
1010.6 hPa 0.6 mm 10.6°
1
67%
  CAPE Lifted Index Hail Supercell Tornado SRH 3km CL BTM PRES CL TOP PRES Swiss DWD icon SMHI TS
 04:30     22:00    Daglengte: 17:30 Vandaag
16:00 0 J/kg 2.1 K 0 % 0 % 0 % 0 m²/s² 0 0 4.5 3
17:00 0 J/kg 2.2 K 0 % 0 % 0 % 0 m²/s² 0 0 4.69 3
18:00 0 J/kg 2.2 K 0 % 0 % 0 % 0 m²/s² 0 0 4.75 1
19:00 0 J/kg 1.8 K 0 % 0 % 0 % 0 m²/s² 0 0 4.44 0
20:00 0 J/kg 1.2 K 0 % 0 % 0 % 0 m²/s² 0 0 3.93 3
21:00 0 J/kg 0.6 K 0 % 0 % 0 % 0 m²/s² 0 0 3.33 1
22:00 0 J/kg 0.4 K 0 % 0 % 0 % 0 m²/s² 0 0 3.43 0
23:00 76 J/kg -0.8 K 0 % 0 % 0 % 0 m²/s² 0 0 2.17 0
 04:32     21:57    Daglengte: 17:25 Morgen
00:00 50 J/kg -1.0 K 0 % 0 % 0 % 0 m²/s² 0 0 1.79 0
01:00 2 J/kg -0.6 K 0 % 0 % 0 % 0 m²/s² 0 0 2.19 0
02:00 0 J/kg -0.8 K 0 % 0 % 0 % 0 m²/s² 0 0 1.75 0
03:00 0 J/kg -0.9 K 0 % 0 % 0 % 0 m²/s² 0 0 1.59 0
04:00 0 J/kg -0.8 K 0 % 0 % 0 % 0 m²/s² 0 0 1.54 0
05:00 0 J/kg -0.6 K 0 % 0 % 0 % 0 m²/s² 0 0 1.95 0
06:00 0 J/kg -0.4 K 0 % 0 % 0 % 0 m²/s² 0 0 2.39 0
07:00 0 J/kg -0.3 K 0 % 0 % 0 % 0 m²/s² 0 0 2.58 0
08:00 0 J/kg -0.1 K 0 % 0 % 0 % 0 m²/s² 0 0 3.2 0
09:00 0 J/kg -0.1 K 0 % 0 % 0 % 0 m²/s² 0 0 3.38 0
10:00 0 J/kg 0.0 K 0 % 0 % 0 % 0 m²/s² 0 0 3.66 0
11:00 44 J/kg -0.2 K 0 % 0 % 0 % 0 m²/s² 0 0 3.28 0
12:00 54 J/kg 0.0 K 0 % 0 % 0 % 0 m²/s² 0 0 3.48 2
13:00 77 J/kg -0.3 K 0 % 0 % 0 % 0 m²/s² 0 0 3.48 2
14:00 103 J/kg -0.7 K 0 % 0 % 0 % 0 m²/s² 0 0 2.99 2
15:00 86 J/kg -0.7 K 0 % 0 % 0 % 0 m²/s² 0 0 3.17 3
16:00 77 J/kg -0.6 K 0 % 0 % 0 % 0 m²/s² 0 0 3.39 3
17:00 84 J/kg -0.8 K 0 % 0 % 0 % 0 m²/s² 0 0 3.52 3
18:00 68 J/kg -0.9 K 0 % 0 % 0 % 0 m²/s² 0 0 3.75 3
19:00 62 J/kg -0.9 K 0 % 0 % 0 % 0 m²/s² 0 0 4.02 2
20:00 88 J/kg -1.0 K 0 % 0 % 0 % 0 m²/s² 0 0 3.89 2
21:00 316 J/kg -1.8 K 0 % 0 % 0 % 0 m²/s² 0 0 3 1
22:00 300 J/kg -1.3 K 0 % 0 % 0 % 0 m²/s² 0 0 3.14 1
23:00 25 J/kg -0.3 K 0 % 0 % 0 % 0 m²/s² 0 0 3.81 1
 04:35     21:55    Daglengte: 17:20 Woensdag 28 Jul
00:00 0 J/kg -0.9 K 0 % 0 % 0 % 0 m²/s² 0 0 3.78 1
01:00 0 J/kg -1.1 K 0 % 0 % 0 % 0 m²/s² 0 0 3.94 1
02:00 0 J/kg -0.8 K 0 % 0 % 0 % 0 m²/s² 0 0 4.66 1
03:00 0 J/kg -0.4 K 0 % 0 % 0 % 0 m²/s² 0 0 4.91 0
04:00 0 J/kg 0.2 K 0 % 0 % 0 % 0 m²/s² 0 0 5.81 0
05:00 0 J/kg 0.4 K 0 % 0 % 0 % 0 m²/s² 0 0 5.44 3
06:00 0 J/kg 0.5 K 0 % 0 % 0 % 0 m²/s² 0 0 5.18 1
07:00 0 J/kg 0.4 K 0 % 0 % 0 % 0 m²/s² 0 0 4.51 3
08:00 0 J/kg 0.6 K 0 % 0 % 0 % 0 m²/s² 0 0 4.5 2
09:00 71 J/kg -0.5 K 0 % 0 % 0 % 0 m²/s² 0 0 3.4 1
10:00 260 J/kg -1.3 K 0 % 0 % 0 % 0 m²/s² 0 0 2.3 0
11:00 483 J/kg -2.4 K 0 % 0 % 0 % 0 m²/s² 0 0 1.41 0
12:00 779 J/kg -3.6 K 0 % 0 % 0 % 0 m²/s² 0 0 -0.51 3
13:00 899 J/kg -4.1 K 0 % 0 % 0 % 0 m²/s² 0 0 -1.34 3
14:00 1094 J/kg -4.5 K 0 % 0 % 0 % 0 m²/s² 0 0 -2.31 3
15:00 1055 J/kg -4.2 K 0 % 0 % 0 % 0 m²/s² 0 0 -3.63 3
16:00 996 J/kg -3.8 K 0 % 0 % 0 % 0 m²/s² 0 0 -2.18 3
17:00 916 J/kg -4.1 K 0 % 0 % 0 % 0 m²/s² 0 0 -2.93 3
18:00 926 J/kg -3.1 K 0 % 0 % 0 % 0 m²/s² 0 0 -2.14 3
19:00 525 J/kg -2.3 K 0 % 0 % 0 % 0 m²/s² 0 0 -2 3
20:00 226 J/kg -2.6 K 0 % 0 % 0 % 0 m²/s² 0 0 -2.57 3
21:00 129 J/kg -2.0 K 0 % 0 % 0 % 0 m²/s² 0 0 -1.43 61
22:00 110 J/kg -2.3 K 0 % 0 % 0 % 0 m²/s² 0 0 -2.12 80
23:00 136 J/kg -3.7 K 0 % 0 % 0 % 0 m²/s² 0 0 -3.07 61
 04:37     21:52    Daglengte: 17:15 Donderdag 29 Jul
00:00 266 J/kg -2.0 K 0 % 0 % 0 % 0 m²/s² 0 0 -1.64 95
01:00 274 J/kg -2.0 K 0 % 0 % 0 % 0 m²/s² 0 0 -1.7 95
02:00 145 J/kg -0.8 K 0 % 0 % 0 % 0 m²/s² 0 0 -0.32 95
03:00 204 J/kg -1.5 K 0 % 0 % 0 % 0 m²/s² 0 0 -1.23 95
04:00 233 J/kg -1.4 K 0 % 0 % 0 % 0 m²/s² 0 0 -1.13 3
05:00 299 J/kg -1.8 K 0 % 0 % 0 % 0 m²/s² 0 0 -1.62 2
06:00 350 J/kg -1.8 K 0 % 0 % 0 % 0 m²/s² 0 0 -1.71 2
07:00 274 J/kg -1.6 K 0 % 0 % 0 % 0 m²/s² 0 0 -1.6 2
08:00 314 J/kg -1.5 K 0 % 0 % 0 % 0 m²/s² 0 0 -1.14 2
09:00 537 J/kg -2.0 K 0 % 0 % 0 % 0 m²/s² 0 0 -1.82 2
10:00 692 J/kg -2.4 K 0 % 0 % 0 % 0 m²/s² 0 0 -2.28 3
11:00 727 J/kg -2.5 K 0 % 0 % 0 % 0 m²/s² 0 0 -2.41 3
12:00 494 J/kg -1.4 K 0 % 0 % 0 % 0 m²/s² 0 0 -1.31 3
13:00 665 J/kg -1.9 K 0 % 0 % 0 % 0 m²/s² 0 0 0.26 3
14:00 788 J/kg -2.7 K 0 % 0 % 0 % 0 m²/s² 0 0 -0.39 2
15:00 853 J/kg -3.2 K 0 % 0 % 0 % 0 m²/s² 0 0 -1.1 2
Temp Baro Wind Neerslag
  EWN Forecast EWN WRFDA DWD ICON FMI HIRLAM MET Norway GFS
 04:30     22:00    Daglengte: 17:30 Vandaag
18:00 26.7° 1019.2 hPa 1.6 m/s 0.0 mm 23.8° 1019.2 hPa 1.9 m/s 0.0 mm 27.9° 1019.0 hPa 1.7 m/s -2.0 mm 27.2° 1019.1 hPa 1.0 m/s 0.0 mm 26.2° 1018.9 hPa 1.3 m/s
21:00 24.2° 1019.0 hPa 1.9 m/s 0.0 mm 21.6° 1018.9 hPa 1.6 m/s 0.0 mm 25.1° 1018.7 hPa 1.2 m/s 0.0 mm 24.5° 1018.9 hPa 2.5 m/s 0.0 mm 21.9° 1018.9 hPa 3.3 m/s
 04:32     21:57    Daglengte: 17:25 Morgen
00:00 20.6° 1019.7 hPa 2.5 m/s 0.0 mm 18.4° 1019.5 hPa 3.0 m/s 0.0 mm 20.2° 1019.7 hPa 1.8 m/s 0.0 mm 20.7° 1019.6 hPa 2.5 m/s 0.0 mm 18.3° 1019.3 hPa 2.8 m/s
03:00 18.9° 1019.7 hPa 1.5 m/s 0.0 mm 16.9° 1019.4 hPa 3.3 m/s 0.0 mm 18.9° 1019.3 hPa 1.3 m/s 0.0 mm 18.9° 1019.7 hPa 1.9 m/s 0.0 mm 16.8° 1019.8 hPa 2.0 m/s
06:00 18.4° 1019.6 hPa 1.4 m/s 0.0 mm 18.1° 1019.2 hPa 2.6 m/s 0.0 mm 18.1° 1019.3 hPa 1.0 m/s 0.0 mm 18.6° 1019.6 hPa 1.3 m/s 0.0 mm 17.3° 1019.6 hPa 1.9 m/s
09:00 23.0° 1019.1 hPa 1.7 m/s 0.0 mm 22.4° 1019.1 hPa 1.4 m/s 0.0 mm 23.9° 1019.0 hPa 1.7 m/s 0.0 mm 23.0° 1019.1 hPa 2.1 m/s 0.0 mm 23.3° 1019.2 hPa 1.3 m/s
12:00 26.7° 1018.5 hPa 1.0 m/s 0.0 mm 24.0° 1018.3 hPa 1.5 m/s 0.0 mm 28.2° 1018.2 hPa 0.4 m/s 0.0 mm 27.1° 1018.4 hPa 1.6 m/s 0.0 mm 27.0° 1018.2 hPa 0.5 m/s
15:00 27.8° 1017.1 hPa 2.2 m/s 0.0 mm 24.5° 1017.3 hPa 2.4 m/s 0.0 mm 29.3° 1016.7 hPa 2.2 m/s 0.0 mm 28.3° 1017.1 hPa 3.3 m/s 0.0 mm 27.4° 1016.9 hPa 1.6 m/s
18:00 27.4° 1015.9 hPa 3.0 m/s 0.0 mm 23.9° 1016.0 hPa 3.4 m/s 0.0 mm 28.8° 1015.5 hPa 3.0 m/s 0.0 mm 28.0° 1015.9 hPa 3.3 m/s 0.0 mm 27.4° 1015.9 hPa 1.6 m/s
21:00 24.7° 1015.0 hPa 3.0 m/s 0.0 mm 21.9° 1014.6 hPa 3.2 m/s 0.0 mm 25.9° 1014.9 hPa 3.0 m/s 0.0 mm 24.9° 1015.0 hPa 3.6 m/s 0.0 mm 22.1° 1015.3 hPa 2.3 m/s
 04:35     21:55    Daglengte: 17:20 Woensdag 28 Jul
00:00 21.0° 1014.7 hPa 2.8 m/s 0.0 mm 19.3° 1014.4 hPa 3.9 m/s 0.0 mm 21.0° 1014.7 hPa 2.8 m/s 0.0 mm 20.9° 1014.6 hPa 3.9 m/s 0.0 mm 18.0° 1015.3 hPa 3.4 m/s
03:00 18.9° 1013.8 hPa 3.1 m/s 0.0 mm 17.3° 1013.2 hPa 4.6 m/s 0.0 mm 18.3° 1013.9 hPa 2.7 m/s 0.0 mm 18.7° 1014.0 hPa 3.6 m/s 0.0 mm 16.7° 1014.6 hPa 3.2 m/s
06:00 19.1° 1012.6 hPa 3.5 m/s 0.0 mm 17.8° 1011.6 hPa 4.7 m/s 0.0 mm 18.2° 1012.8 hPa 3.0 m/s 0.0 mm 19.2° 1012.8 hPa 4.0 m/s 0.0 mm 16.7° 1013.5 hPa 3.2 m/s
09:00 21.8° 1011.1 hPa 3.4 m/s 0.0 mm 21.9° 1010.4 hPa 4.6 m/s 0.0 mm 23.3° 1011.2 hPa 3.5 m/s 0.0 mm 21.2° 1011.6 hPa 3.4 m/s 0.0 mm 22.5° 1011.8 hPa 3.7 m/s
12:00 24.8° 1009.3 hPa 3.7 m/s 0.0 mm 24.2° 1008.8 hPa 4.9 m/s 0.1 mm 28.7° 1009.3 hPa 3.7 m/s 0.0 mm 26.0° 1009.8 hPa 3.7 m/s
15:00 23.1° 1007.9 hPa 3.2 m/s 2.3 mm 22.4° 1007.8 hPa 4.0 m/s 3.7 mm 28.7° 1007.6 hPa 3.1 m/s 0.0 mm 25.4° 1008.2 hPa 2.7 m/s
18:00 21.6° 1006.8 hPa 3.3 m/s 4.7 mm 20.7° 1006.5 hPa 6.2 m/s 9.8 mm 26.9° 1006.8 hPa 2.9 m/s 0.0 mm 21.4° 1007.7 hPa 4.2 m/s
21:00 20.2° 1005.6 hPa 3.7 m/s 3.9 mm 20.0° 1004.3 hPa 4.6 m/s 20.5 mm 21.6° 1006.5 hPa 3.9 m/s 0.1 mm 17.1° 1006.6 hPa 3.2 m/s
 04:37     21:52    Daglengte: 17:15 Donderdag 29 Jul
00:00 18.8° 1004.5 hPa 2.3 m/s 6.2 mm 18.7° 1003.8 hPa 2.1 m/s 22.6 mm 18.7° 1005.6 hPa 1.3 m/s 3.5 mm 16.9° 1005.6 hPa 2.9 m/s
03:00 18.3° 1002.7 hPa 2.8 m/s 9.1 mm 17.6° 1002.2 hPa 2.5 m/s 25.9 mm 18.3° 1004.0 hPa 2.6 m/s 4.3 mm 16.6° 1003.8 hPa 3.4 m/s
06:00 18.1° 1001.2 hPa 3.1 m/s 9.1 mm 18.0° 1001.1 hPa 0.6 m/s 26.2 mm 18.0° 1002.6 hPa 3.0 m/s 0.2 mm 17.1° 1002.7 hPa 2.5 m/s
09:00 18.7° 1000.4 hPa 4.2 m/s 25.2 mm 18.5° 1000.7 hPa 3.4 m/s 72.4 mm 19.9° 1001.6 hPa 4.0 m/s 0.0 mm 18.9° 1001.5 hPa 4.5 m/s
12:00 21.3° 1000.7 hPa 5.5 m/s 0.0 mm 18.5° 1000.3 hPa 4.9 m/s 98.6 mm 21.9° 1000.8 hPa 5.7 m/s 0.0 mm 22.9° 1000.6 hPa 5.1 m/s
15:00 22.2° 999.4 hPa 4.8 m/s 0.0 mm 19.6° 999.8 hPa 1.4 m/s 116.6 mm 22.9° 999.3 hPa 5.6 m/s 0.0 mm 23.7° 999.9 hPa 5.6 m/s
18:00 22.0° 999.0 hPa 5.3 m/s 6.3 mm 22.0° 999.0 hPa 5.3 m/s 6.3 mm
21:00 19.3° 998.9 hPa 3.8 m/s 7.0 mm 19.3° 998.9 hPa 3.8 m/s 7.0 mm
 04:40     21:49    Daglengte: 17:09 Vrijdag 30 Jul
00:00 16.4° 998.7 hPa 3.9 m/s 7.0 mm 16.4° 998.7 hPa 3.9 m/s 7.1 mm
03:00 16.4° 998.2 hPa 4.3 m/s 7.0 mm 16.4° 998.2 hPa 4.3 m/s 7.1 mm
06:00 15.6° 997.5 hPa 3.8 m/s 7.5 mm 15.6° 997.5 hPa 3.8 m/s 7.5 mm
09:00 18.1° 997.2 hPa 6.0 m/s 7.6 mm 18.1° 997.2 hPa 6.0 m/s 7.6 mm
12:00 17.8° 996.6 hPa 6.5 m/s 8.9 mm 17.8° 996.6 hPa 6.5 m/s 8.9 mm
15:00 17.9° 995.6 hPa 7.0 m/s 10.7 mm 17.9° 995.6 hPa 7.0 m/s 10.7 mm
18:00 17.5° 994.7 hPa 6.4 m/s 11.9 mm 17.5° 994.7 hPa 6.4 m/s 11.9 mm
21:00 14.6° 992.3 hPa 6.4 m/s 13.3 mm 14.6° 992.3 hPa 6.4 m/s 13.3 mm
 04:42     21:47    Daglengte: 17:05 Zaterdag 31 Jul
00:00 13.8° 990.3 hPa 4.7 m/s 15.0 mm 13.8° 990.3 hPa 4.7 m/s 15.0 mm
03:00 12.6° 989.6 hPa 4.8 m/s 15.2 mm 12.6° 989.6 hPa 4.8 m/s 15.2 mm
06:00 12.5° 989.5 hPa 4.3 m/s 16.3 mm 12.5° 989.5 hPa 4.3 m/s 16.3 mm
09:00 14.6° 991.0 hPa 5.0 m/s 17.0 mm 14.6° 991.0 hPa 5.0 m/s 17.0 mm
12:00 15.3° 993.3 hPa 4.7 m/s 17.4 mm 15.3° 993.3 hPa 4.7 m/s 17.3 mm
15:00 19.4° 995.1 hPa 4.8 m/s 18.8 mm 19.4° 995.1 hPa 4.8 m/s 18.8 mm
18:00 21.4° 996.2 hPa 3.5 m/s 18.9 mm 21.4° 996.2 hPa 3.5 m/s 18.9 mm
21:00 17.8° 997.7 hPa 2.6 m/s 18.9 mm 17.8° 997.7 hPa 2.6 m/s 18.9 mm
 04:45     21:44    Daglengte: 16:59 Zondag 01 Aug
00:00 17.2° 998.6 hPa 2.1 m/s 18.9 mm 17.2° 998.6 hPa 2.1 m/s 18.9 mm
03:00 14.3° 999.5 hPa 3.0 m/s 18.9 mm 14.3° 999.5 hPa 3.0 m/s 18.9 mm
06:00 13.7° 1000.9 hPa 2.7 m/s 18.9 mm 13.7° 1000.9 hPa 2.7 m/s 18.9 mm
09:00 17.8° 1001.0 hPa 3.3 m/s 18.9 mm 17.8° 1001.1 hPa 3.3 m/s 18.9 mm
12:00 20.9° 1001.0 hPa 4.2 m/s 18.9 mm 20.9° 1001.0 hPa 4.2 m/s 18.9 mm
15:00 20.8° 1000.7 hPa 5.8 m/s 19.4 mm 20.8° 1000.7 hPa 5.8 m/s 19.4 mm
18:00 17.2° 999.9 hPa 3.1 m/s 19.8 mm 17.2° 999.9 hPa 3.1 m/s 19.8 mm
21:00 17.1° 999.1 hPa 4.7 m/s 21.0 mm 17.1° 999.1 hPa 4.7 m/s 21.0 mm
 04:47     21:42    Daglengte: 16:55 Maandag 02 Aug
00:00 14.5° 999.9 hPa 3.6 m/s 21.1 mm 14.5° 999.9 hPa 3.6 m/s 21.1 mm
03:00 14.5° 999.9 hPa 3.9 m/s 21.1 mm 14.5° 999.9 hPa 3.9 m/s 21.1 mm
06:00 14.8° 1000.7 hPa 3.4 m/s 21.1 mm 14.8° 1000.7 hPa 3.4 m/s 21.1 mm
09:00 17.6° 1000.6 hPa 3.8 m/s 21.2 mm 17.6° 1000.6 hPa 3.8 m/s 21.2 mm
12:00 20.3° 1000.5 hPa 3.5 m/s 21.6 mm 20.3° 1000.5 hPa 3.5 m/s 21.6 mm
15:00 22.2° 999.5 hPa 3.0 m/s 21.7 mm 22.2° 999.5 hPa 3.0 m/s 21.7 mm
21:00 17.8° 997.3 hPa 2.3 m/s 21.7 mm 17.8° 997.3 hPa 2.3 m/s 21.7 mm
 04:50     21:39    Daglengte: 16:49 Dinsdag 03 Aug
03:00 14.6° 996.3 hPa 1.9 m/s 23.5 mm 14.6° 996.3 hPa 1.9 m/s 23.5 mm
09:00 16.3° 996.7 hPa 4.4 m/s 24.2 mm 16.3° 996.7 hPa 4.4 m/s 24.2 mm
15:00 22.4° 997.3 hPa 5.1 m/s 25.1 mm 22.4° 997.3 hPa 5.1 m/s 25.1 mm
21:00 16.7° 1001.3 hPa 5.0 m/s 25.1 mm 16.7° 1001.3 hPa 5.0 m/s 25.1 mm
 04:52     21:36    Daglengte: 16:44 Woensdag 04 Aug
03:00 12.4° 1002.1 hPa 4.9 m/s 25.5 mm 12.4° 1002.1 hPa 4.9 m/s 25.5 mm
09:00 14.9° 1004.5 hPa 6.4 m/s 25.5 mm 14.9° 1004.5 hPa 6.4 m/s 25.5 mm
15:00 18.4° 1004.8 hPa 5.5 m/s 25.5 mm 18.4° 1004.8 hPa 5.5 m/s 25.5 mm
21:00 16.0° 1005.4 hPa 4.9 m/s 25.8 mm 16.0° 1005.4 hPa 4.9 m/s 25.8 mm
 04:55     21:33    Daglengte: 16:38 Donderdag 05 Aug
03:00 11.9° 1006.6 hPa 2.8 m/s 25.8 mm 11.9° 1006.6 hPa 2.8 m/s 25.8 mm
09:00 16.3° 1004.7 hPa 5.0 m/s 28.9 mm 16.3° 1004.7 hPa 5.0 m/s 28.9 mm
15:00 18.4° 1008.0 hPa 1.5 m/s 1.4 mm
21:00 15.0° 1007.9 hPa 1.0 m/s 1.3 mm
 04:57     21:31    Daglengte: 16:34 Vrijdag 06 Aug
03:00 12.1° 1008.4 hPa 0.6 m/s 0.3 mm
09:00 14.8° 1008.2 hPa 0.6 m/s 0.7 mm
15:00 18.3° 1008.0 hPa 0.4 m/s 1.2 mm
21:00 15.0° 1007.7 hPa 0.8 m/s 0.6 mm
 05:00     21:28    Daglengte: 16:28 Zaterdag 07 Aug
03:00 12.4° 1007.9 hPa 0.8 m/s 0.5 mm
09:00 15.3° 1007.4 hPa 0.9 m/s 1.6 mm
15:00 19.0° 1007.0 hPa 1.1 m/s 2.0 mm
21:00 15.7° 1007.2 hPa 0.6 m/s 0.8 mm
 05:02     21:25    Daglengte: 16:23 Zondag 08 Aug
03:00 12.6° 1008.0 hPa 0.7 m/s 0.4 mm
09:00 16.0° 1008.2 hPa 1.2 m/s 0.8 mm
15:00 20.2° 1008.5 hPa 2.1 m/s 0.2 mm
21:00 15.8° 1009.1 hPa 1.2 m/s 0.7 mm
 05:05     21:22    Daglengte: 16:17 Maandag 09 Aug
03:00 12.3° 1010.1 hPa 0.4 m/s 0.3 mm
09:00 15.7° 1010.6 hPa 0.3 m/s 0.5 mm
15:00 19.9° 1010.8 hPa 0.8 m/s 0.8 mm
21:00 15.9° 1010.7 hPa 0.6 m/s 0.6 mm
 05:07     21:19    Daglengte: 16:12 Dinsdag 10 Aug
03:00 12.5° 1010.8 hPa 0.6 m/s 0.5 mm
09:00 15.8° 1010.9 hPa 0.7 m/s 0.2 mm
15:00 19.2° 1010.6 hPa 0.9 m/s 0.6 mm
FMI Hirlam - 7.5 km EWN WRFDA - 12 km DWD ICON - 7 km GFS - 25 km Basiskaart






























































Updatetijd (Europe/Amsterdam) Resolutie Lengte Stap
FMI Hirlam 14:00, 20:00, 02:00, 08:00 7.5 km 49h 1h
EWN WRFDA 10:30, 16:30, 22:30, 04:30 12 km 73h 1h
DWD ICON 11:45, 17:45, 23:45, 05:45 7 km 75h 1h
GFS 14:15, 20:15, 02:15, 08:15 25 km 237h 3h
30+ mm
25-30 mm
20-25 mm
15-20 mm
10-15 mm
6-10 mm
4-6 mm
2-4 mm
1-2 mm
0.5-1 mm
0.2-0.5 mm
0.1-0.2 mm
30+ mm
25-30 mm
20-25 mm
15-20 mm
10-15 mm
6-10 mm
4-6 mm
2-4 mm
1-2 mm
0.5-1 mm
0.2-0.5 mm
0.1-0.2 mm
Sneeuwval
Natte sneeuw
Hagel
Vorst
30+ mm
25-30 mm
20-25 mm
15-20 mm
10-15 mm
6-10 mm
4-6 mm
2-4 mm
1-2 mm
0.5-1 mm
0.2-0.5 mm
0.1-0.2 mm
Sneeuwval
Natte sneeuw
Hagel
Vorst
Onweer
50 mm
40 mm
30 mm
26 mm
22 mm
18 mm
14 mm
10 mm
9 mm
8 mm
7 mm
6 mm
5 mm
4.5 mm
4 mm
3.5 mm
3 mm
2.5 mm
2 mm
1.5 mm
1 mm
0.8 mm
0.6 mm
0.4 mm
0.2 mm
0.05 mm
35°
30°
25°
20°
15°
10°
-5°
-10°
-15°
-20°
-25°
-30°
-35°
33> m/s
29 m/s
25 m/s
21 m/s
17 m/s
14 m/s
11 m/s
8 m/s
5 m/s
3 m/s
0 m/s
2600 J/kg
2400 J/kg
2200 J/kg
2000 J/kg
1800 J/kg
1600 J/kg
1400 J/kg
1200 J/kg
1000 J/kg
800 J/kg
600 J/kg
400 J/kg
200 J/kg
70 dBZ
65 dBZ
60 dBZ
55 dBZ
50 dBZ
45 dBZ
40 dBZ
35 dBZ
30 dBZ
25 dBZ
20 dBZ
15 dBZ
10 dBZ
5 dBZ
-1 K
-2 K
-3 K
-4 K
-5 K
-6 K
-7 K
-8 K
-9 K
950 m²/s²
900 m²/s²
850 m²/s²
800 m²/s²
750 m²/s²
700 m²/s²
650 m²/s²
600 m²/s²
550 m²/s²
500 m²/s²
450 m²/s²
400 m²/s²
350 m²/s²
300 m²/s²
250 m²/s²
200 m²/s²
150 m²/s²
100 m²/s²
46 m/s
44 m/s
42 m/s
40 m/s
38 m/s
36 m/s
34 m/s
32 m/s
30 m/s
28 m/s
26 m/s
24 m/s
22 m/s
20 m/s
16 m/s
12 m/s
8 m/s
4 m/s
30 m/s
28 m/s
26 m/s
24 m/s
22 m/s
20 m/s
18 m/s
16 m/s
14 m/s
12 m/s
10 m/s
8 m/s
6 m/s
4 m/s
2 m/s
3.0
2.8
2.6
2.4
2.2
2.0
1.8
1.6
1.4
1.2
1.0
0.8
0.6
0.4
0.2
15
14
13
12
11
10
9
8
7
6
5
4
3
2
1
90%
80%
70%
60%
50%
40%
30%
20%
10%
42
40
38
36
34
32
30